TimeCST,TemperatureF,Dew PointF,Humidity,Sea Level PressureIn,VisibilityMPH,Wind Direction,Wind SpeedMPH,Gust SpeedMPH,PrecipitationIn,Events,Conditions,WindDirDegrees,DateUTC
12:53 AM,28.9,23.0,78,30.32,10.0,Calm,Calm,-,N/A,,Clear,0,2013-01-17 06:53:00
1:53 AM,26.1,21.9,84,30.35,10.0,Calm,Calm,-,N/A,,Clear,0,2013-01-17 07:53:00
2:53 AM,19.9,18.0,92,30.38,10.0,Calm,Calm,-,N/A,,Clear,0,2013-01-17 08:53:00
3:53 AM,27.0,21.0,78,30.37,10.0,WSW,3.5,-,N/A,,Clear,240,2013-01-17 09:53:00
4:53 AM,28.0,21.0,75,30.38,10.0,NNW,5.8,-,N/A,,Clear,340,2013-01-17 10:53:00
5:53 AM,28.9,21.0,72,30.40,10.0,Calm,Calm,-,N/A,,Clear,0,2013-01-17 11:53:00
6:53 AM,28.9,21.0,72,30.40,10.0,Variable,3.5,-,N/A,,Clear,0,2013-01-17 12:53:00
7:53 AM,27.0,19.9,75,30.43,10.0,WSW,5.8,-,N/A,,Clear,250,2013-01-17 13:53:00
8:53 AM,25.0,19.0,78,30.46,10.0,Calm,Calm,-,N/A,,Clear,0,2013-01-17 14:53:00
9:53 AM,33.1,23.0,66,30.49,-9999.0,Calm,Calm,-,N/A,,Clear,0,2013-01-17 15:53:00
10:23 AM,37.4,23.0,56,30.42,1.2,NW,6.9,-,N/A,,Haze,310,2013-01-17 16:23:00
10:33 AM,37.4,23.0,56,30.42,10.0,NW,5.8,-,N/A,,Clear,310,2013-01-17 16:33:00
10:53 AM,39.9,24.1,53,30.48,10.0,WNW,4.6,-,N/A,,Clear,300,2013-01-17 16:53:00
11:53 AM,43.0,24.1,47,30.45,10.0,West,4.6,-,N/A,,Clear,260,2013-01-17 17:53:00
12:53 PM,44.1,24.1,45,30.41,10.0,SW,5.8,-,N/A,,Clear,230,2013-01-17 18:53:00
1:53 PM,48.0,23.0,37,30.39,10.0,WNW,3.5,-,N/A,,Clear,290,2013-01-17 19:53:00
2:53 PM,48.9,21.9,35,30.37,10.0,WSW,5.8,-,N/A,,Clear,240,2013-01-17 20:53:00
3:53 PM,50.0,21.9,33,30.34,10.0,West,10.4,-,N/A,,Clear,260,2013-01-17 21:53:00
4:53 PM,48.0,21.9,36,30.34,10.0,West,5.8,-,N/A,,Clear,270,2013-01-17 22:53:00
5:53 PM,36.0,21.0,55,30.35,10.0,SW,4.6,-,N/A,,Clear,230,2013-01-17 23:53:00
6:53 PM,32.0,19.9,61,30.35,10.0,WSW,3.5,-,N/A,,Clear,250,2013-01-18 00:53:00
7:53 PM,28.9,19.9,69,30.35,10.0,Calm,Calm,-,N/A,,Clear,0,2013-01-18 01:53:00
8:53 PM,25.0,18.0,75,30.34,10.0,Calm,Calm,-,N/A,,Clear,0,2013-01-18 02:53:00
9:53 PM,28.0,19.0,69,30.30,10.0,WSW,3.5,-,N/A,,Clear,250,2013-01-18 03:53:00
10:53 PM,28.0,19.9,72,30.27,10.0,WSW,4.6,-,N/A,,Clear,250,2013-01-18 04:53:00
11:53 PM,23.0,18.0,81,30.25,10.0,South,3.5,-,N/A,,Clear,190,2013-01-18 05:53:00